Location: Hilltop Manor Extension Mobile Home Park
(44.3087°N, 71.7506°W)
Time: 05:40:55
(UTC+00:00)

Daily predictions for brighter satellites

Satellite Brightness Start Highest point End
(mag) Time Altitude Azimuth Time Altitude Azimuth Time Altitude Azimuth
RESURS DK-1 4.1 00:02:30 10° NW 00:05:59 28° WSW 00:05:59 28° WSW
Cosmos 1954 Rocket 4.3 00:01:11 10° SSW 00:06:16 65° W 00:06:16 65° W
Resurs 01 Rocket 4.1 00:12:18 14° NNW 00:12:18 14° NNW 00:12:57 10° NNW
Okean 2 Rocket 4.4 00:04:54 10° SSW 00:08:01 36° WSW 00:08:01 36° WSW
COSMOS 2406 3.9 00:04:02 10° NNW 00:07:52 44° NNW 00:07:52 44° NNW
ATLAS 2AS CENTAUR R/B 3.8 00:06:29 10° NNW 00:10:49 30° N 00:10:49 30° N
ISS -0.4 00:13:51 10° W 00:14:17 13° W 00:14:17 13° W
SJ 16-02 3.3 00:13:03 10° SW 00:15:05 25° WSW 00:15:05 25° WSW
USA 281 4.3 01:07:16 40° WNW 01:07:16 40° WNW 01:11:59 10° NW
ACS3 Solar Sail 4.2 07:35:33 10° NNE 07:36:21 14° NNE 07:36:21 14° NNE
CZ-2C R/B 4.4 08:16:37 10° NNE 08:19:10 26° NE 08:19:10 26° NE
Cosmos 2123 Rocket 4.2 08:39:00 63° NE 08:39:00 63° NE 08:44:27 10° NNE
Cosmos 2278 Rocket 4.0 08:43:28 21° SSE 08:43:28 21° SSE 08:45:13 10° SSE
Cosmos 2237 Rocket 3.1 08:43:08 43° NNE 08:43:08 43° NNE 08:46:51 10° NNE
SJ 16-02 3.5 08:41:28 23° ENE 08:41:32 23° ENE 08:44:58 10° ESE
Cosmos 1943 Rocket 4.2 08:46:29 16° SSE 08:46:29 16° SSE 08:47:35 10° SSE
Cosmos 2016 Rocket 4.3 08:38:59 10° N 08:45:20 63° E 08:51:34 10° SSE
ARGOS 4.2 08:41:21 10° NNE 08:44:43 39° NNE 08:44:43 39° NNE
Cosmos 2369 Rocket 4.3 08:46:54 11° N 08:50:53 21° NE 08:55:10 10° E
Cosmos 1932 4.4 08:52:11 84° SSE 08:52:11 84° SSE 08:58:28 10° SSE
USA 267 3.3 08:45:53 10° NE 08:52:26 72° SE 08:53:32 60° SSW
NOSS 3-1 (A) 4.1 08:59:37 34° N 08:59:37 34° N 09:03:12 10° NNE
Orbus 7S? 4.4 09:04:47 48° NE 09:04:47 48° NE 09:07:10 10° NE
ATLAS 3B R/B 4.2 08:57:01 10° S 09:03:45 39° ESE 09:10:51 10° NE
Meteor 2-16 Rocket 4.3 09:03:06 54° S 09:04:38 89° W 09:10:48 10° N
CENTAUR R/B 4.2 09:01:19 19° NNW 09:06:53 42° NE 09:15:34 10° ESE
Cosmos 371 Rocket 4.4 09:07:03 26° NNE 09:09:12 41° ENE 09:13:45 10° SE
ADEOS Rocket 4.2 09:12:17 10° N 09:16:31 32° NNW 09:16:31 32° NNW
Cosmos 2292 Rocket 4.0 09:20:13 63° SW 09:21:02 77° W 09:27:19 10° N
ACS3 Solar Sail 3.5 09:18:51 10° N 09:20:28 17° NNW 09:20:28 17° NNW
Cosmos 1656 Rocket 4.0 09:24:18 23° NNW 09:27:55 65° ENE 09:33:32 10° SE
USA 234 3.5 09:22:00 10° ESE 09:28:30 67° NNE 09:31:50 31° NW
Gbstr 26 Del rocket 4.3 09:28:08 35° NNW 09:28:46 37° N 09:34:11 10° ENE
Cosmos 2242 Rocket 4.3 09:28:44 10° S 09:32:59 53° E 09:37:18 10° NNE
Cosmos 2061 Rocket 3.8 09:32:05 10° N 09:38:18 80° W 09:44:29 10° S
Cosmos 1420 Rocket 4.0 09:38:44 52° W 09:39:06 54° WNW 09:44:19 10° NNE
Cosmos 1624 Rocket 3.9 09:34:26 11° SSW 09:39:23 88° WNW 09:44:36 10° NNE
Cosmos 2251 Rocket 3.5 09:38:23 49° WNW 09:39:26 59° WSW 09:44:41 10° S
SL-16 R/B 2.3 09:39:00 10° SSW 09:44:40 76° ESE 09:50:22 10° NNE
PAYLOAD A 4.2 09:39:33 10° N 09:44:41 49° WNW 09:45:54 41° WSW
Cosmos 1725 Rocket 4.2 09:39:45 10° NNW 09:45:40 44° W 09:51:33 10° SSW
Aureole 3 Rocket 4.2 09:42:10 10° N 09:47:27 70° E 09:54:49 10° SSE
Cosmos 1939 Rocket 4.1 09:43:53 10° N 09:45:43 26° N 09:45:43 26° N
Cosmos 2233 Rocket 3.9 09:41:34 10° NNW 09:47:46 62° W 09:53:52 10° S
Cosmos 1447 Rocket 4.4 09:45:23 10° S 09:51:38 85° W 09:58:00 10° N
BREEZE-M DEB (TANK) 3.3 09:54:02 23° S 09:54:55 29° SE 09:57:55 10° E
USA 306 3.5 09:56:43 29° N 09:56:43 29° N 09:59:29 10° NE
CZ-2C R/B 3.4 09:54:50 10° N 09:58:23 29° NW 09:58:23 29° NW
Cosmos 2346 Rocket 4.3 09:56:46 10° SSW 10:02:50 68° W 10:08:55 10° N
SJ-11-01 4.2 09:58:48 10° N 10:03:26 62° WNW 10:08:04 10° SSW
Okean 2 Rocket 3.9 10:12:08 10° N 10:16:25 52° ENE 10:20:41 10° SSE
BREEZE-M DEB (TANK) 4.2 10:09:59 20° W 10:18:14 79° N 10:22:25 10° E
SJ 16-02 1.9 10:18:05 25° WNW 10:19:44 34° WSW 10:23:36 10° SSW
Cosmos 676 Rocket 4.2 10:15:43 13° NNW 10:20:09 49° WSW 10:25:08 10° S
SKYMED 2 3.6 10:16:27 10° S 10:20:42 56° W 10:25:00 10° NNW
Aureole 3 4.3 10:15:37 10° SSW 10:21:17 46° WNW 10:26:05 10° N
COSMO-SKYMED 1 2.3 10:19:20 10° S 10:23:26 74° WSW 10:27:34 10° NNW
Cosmos 2237 Rocket 3.5 10:24:59 19° WNW 10:25:55 19° NW 10:29:56 10° N
Cosmos 2056 Rocket 4.1 10:23:27 10° SW 10:28:22 35° WNW 10:33:18 10° N
Cosmos 2297 3.6 10:24:46 10° NNW 10:30:26 81° WSW 10:36:03 10° SSE
Cosmos 1072 Rocket 4.4 10:25:53 10° N 10:32:02 86° W 10:38:14 10° S
USA 229 DEB 3.4 10:27:10 10° SW 10:33:01 69° NW 10:39:40 10° NE
USA 229 3.4 10:27:23 10° SW 10:33:14 70° NW 10:39:52 10° NE
Cosmos 1025 Rocket 3.2 10:29:25 10° S 10:33:44 77° E 10:38:07 10° NNE
USA 267 3.7 10:29:03 10° NE 10:35:13 46° NNW 10:40:54 12° W
Cosmos 1943 3.5 10:29:47 10° SSW 10:35:20 70° ESE 10:40:56 10° NNE
Cosmos 2369 Rocket 2.2 10:29:47 10° NNW 10:35:28 72° WSW 10:41:08 10° SSE
Cosmos 1674 Rocket 3.5 10:35:06 10° SSW 10:39:30 66° W 10:43:55 10° N
IRS-1D 3.9 10:35:42 10° N 10:40:13 37° WNW 10:44:43 10° SW
Lacrosse 5 rocket 2.3 10:38:09 11° NNW 10:40:59 30° NNE 10:43:57 10° E
Cosmos 1484 Rocket 2.4 10:38:27 10° N 10:42:00 80° WNW 10:45:30 10° SSW
Cosmos 1400 Rocket 2.7 10:39:25 10° NNW 10:43:01 51° W 10:46:33 10° S
Cosmos 371 Rocket 4.4 10:45:35 11° NW 10:49:08 23° W 10:52:56 10° SSW
Lacrosse 4 Rocket 3.1 10:46:12 10° N 10:49:39 28° NE 10:53:03 10° ESE
Helios 1A Rocket 3.6 10:47:39 10° SSW 10:50:25 23° W 10:53:12 10° NW
Cosmos 2221 Rocket 3.6 10:46:22 10° SSW 10:50:53 78° W 10:55:26 10° N
Cosmos 968 Rocket 3.7 10:46:52 10° NNW 10:51:59 53° WSW 10:57:03 10° S
ATLAS 3B R/B 3.1 10:46:54 10° SW 10:54:19 57° NW 11:02:05 10° NNE
Cosmos 1812 3.7 10:53:54 13° WNW 10:54:46 15° W 10:56:29 10° SW
Cosmos 1741 Rocket 4.0 10:50:51 10° NNW 10:56:08 67° WSW 11:01:22 10° S
CENTAUR R/B 3.4 10:49:46 10° NW 10:58:13 70° WSW 11:07:36 10° SSE
Cosmos 1455 Rocket 3.7 10:54:06 10° N 10:58:23 58° E 11:02:41 10° SSE
Cosmos 2151 Rocket 4.0 10:54:36 10° NNW 10:58:50 42° W 11:03:00 10° SSW
Cosmos 1110 Rocket 4.4 10:58:46 10° SW 11:03:48 44° WNW 11:08:53 10° N
Sich 1 Rocket 3.8 11:02:01 10° NNW 11:06:27 54° W 11:10:49 10° S
Cosmos 1302 Rocket 4.1 11:02:13 10° SSW 11:07:22 85° ESE 11:12:35 10° NNE
Thor Agena Rocket 3.6 11:05:32 10° NNE 11:10:45 89° WNW 11:15:53 10° SSW
USA 234 3.9 11:05:36 10° SSE 11:11:43 41° SW 11:17:50 10° WNW
Cosmos 1818 3.7 11:10:21 10° SSW 11:15:46 84° ESE 11:21:14 10° NE
Okean 1 Rocket 3.4 11:11:47 10° NNW 11:15:51 42° W 11:19:54 10° SSW
Gbstr 26 Del rocket 4.2 11:10:48 10° WNW 11:16:06 56° NNE 11:22:37 10° E
Tsikada Rocket 4.1 11:12:20 10° S 11:18:40 88° W 11:25:06 10° N
CZ-3 R/B 3.5 11:13:09 10° WSW 11:19:59 20° SSW 11:23:50 10° SSE
